STARLINK-32478, 61726

Orbit data source: Space-Track

STARLINK-32478, 61726 is a payload satellite owned by SpaceX/Seattle (US) in LEO that was launched on Wed, 30 Oct 2024 UTC via an FALCON 9 launch vehicle from the Air Force Eastern Test Range (AFETR). Payloads include a variety of satellites, spacecraft, and rockets equipped with specific instruments for various scientific and technological missions. These include communications satellites like Starlink; space stations such as the ISS; scientific satellites like the Hubble; Earth observation satellites from companies like Planet Labs, Umbra, and HawkEye 360; GPS; miniature CubeSats for education and research; and military/defense satellites.

Loading next visibility...
STARLINK-32478 details
Identifier
61726, 2024-196V
Orbit
LEO
Last TLE update1 day ago
Origin
Flag of USSpaceX/Seattle (US)
ManufacturerSpaceX/Seattle
MissionOperational spacecraft
Bus & MotorSTARLINK V2M, Unknown motor
Mass730 kg wet, ~700 kg dry
Launch date (UTC)
2024-10-30 (1 month ago)
Launch vehicle
FALCON 9
Launch site
Air Force Eastern Test Range (AFETR)
Object type
Payload
Rocket body
Debris
Shape & HBRUnknown
Radar Cross SectionLarge (>1 m²)

Expand to show TLE details & history

TLE from 1 day ago
0 STARLINK-32478
1 61726U 24196V   24347.58217640  .00000771  00000-0  29264-4 0  9999
2 61726  53.1612  44.4053 0001164  78.9547 281.1589 15.39608015  7766
Epoch: 2024-12-12T13:58Z
Definitive object data (Epoch: 2024-12-12T13:58:20.04Z)
Latitude-0.00003°
Longitude113.06134°
Altitude448.017 km
Speed7.645 km/s
True Right ascension02h 57m 37s
True Declination0° 00' 00"
Sunlit
Object was in full shadow at TLE epoch
Visualization TLE readout
Latitude5.59975°
Longitude110.81935°
Altitude447.418 km
Speed7.646 km/s
Apparent Right ascension05h 20m 38s
Apparent Declination-23° 19' 47"
Sunlit
Object is in full shadow
Visualization observer readout
Local Sidereal Time21:15:07
Azimuth89.775° E
Elevation-38.379°
Doppler factor1
Orbital elements
Apogee altitude448.319 km
Perigee altitude446.73 km
Semi-major axis6,825.662 km
Eccentricity0.0001164
Inclination53.1612°
RAAN44.4053°
Arg. of periapsis78.9547°
True anomaly281.14581°
Mean anomaly281.1589°
Eccentric anomaly281.15236°
Mean motion3.84881 °/min
BSTAR0.000029264
Orbital period93.54 mins
Loading maneuver chart data...
Loading historical data...
Loading historical data...
Loading historical data...
Loading historical data...
Loading historical data...
Loading historical data...
Loading historical data...

STARLINK-32478 Visibility forecast

Observer location: undefined°, undefined

Span
Click to sort rows by Start time (UTC) header in descending order
Start Az.
Max El. time (UTC)
Max El. Az.
Max El.
End time (UTC)
End Az.
5 mins2024-12-14 06:41:10.093Z245.978° WSW2024-12-14 06:43:10.093Z322.987° NNW41.785°2024-12-14 06:46:10.093Z43.318° NE
5 mins2024-12-14 13:14:10.093Z305.726° NW2024-12-14 13:16:10.093Z148.433° SSE42.012°2024-12-14 13:19:10.093Z134.09° SE
|